Location: Los Gatos B&B
(42.6926°N, 77.0646°W)
Time: 23:07:31
(UTC-04:00)

Amateur Radio Satellites - All Passes

Search period start: 29 June 2016 22:37
Search period end: 30 June 2016 22:37
Location: Los Gatos B&B, 42.6926°N, 77.0646°W

Satellite Date Start Highest point End Downlink Frequencies (MHz)
Time Altitude Azimuth
ESTCUBE 1 29 Jun 22:38:34 22:41:48 20° 64° (ENE) 22:45:03 437.505/2401.250
AISAT 29 Jun 22:38:45 22:40:42 13° 61° (ENE) 22:42:39 437.250
DELFI C3 29 Jun 22:45:00 22:48:37 31° 263° (W) 22:52:16 145.870
DX 1 29 Jun 22:53:48 22:55:59 14° 62° (ENE) 22:58:10 434.975-435.025
TIGRISAT 29 Jun 22:59:19 23:03:34 34° 97° (E) 23:07:49 435.000
ZACube-1 29 Jun 23:03:07 23:04:42 12° 271° (W) 23:06:17 437.345
50 SAT 29 Jun 23:04:40 23:07:24 20° 67° (ENE) 23:10:09 437.505
UNISAT 6 29 Jun 23:04:48 23:09:12 41° 98° (E) 23:13:38 437.425
SO-50 29 Jun 23:12:55 23:15:58 17° 37° (NE) 23:18:59 436.795
CUBEBUG 1 29 Jun 23:20:05 23:23:59 33° 69° (ENE) 23:27:52 437.445
QB50P2 29 Jun 23:23:26 23:23:45 10° 89° (E) 23:24:02 145.880/145.840
POLYITAN 1 29 Jun 23:25:38 23:26:23 10° 89° (E) 23:27:07 437.675
VELOX 1 29 Jun 23:31:29 23:35:36 41° 71° (ENE) 23:39:45 145.980
AO-85 29 Jun 23:34:28 23:38:25 21° 320° (NW) 23:42:15 145.980
ANTELSAT 29 Jun 23:44:24 23:49:05 80° 284° (WNW) 23:53:47 437.575/2403.000
Cosmos 2491 29 Jun 23:44:29 23:51:04 25° 80° (E) 23:57:38 435.465 / 435.565
SPROUT 30 Jun 00:04:01 00:07:56 38° 71° (ENE) 00:11:54 437.525
UKube-1 30 Jun 00:04:50 00:09:04 59° 73° (ENE) 00:13:20 .
HUMSAT D 30 Jun 00:05:09 00:05:52 10° 272° (W) 00:06:35 437.325/437.525
BUGSAT 1 30 Jun 00:12:05 00:14:09 13° 91° (E) 00:16:13 437.445
AISAT 30 Jun 00:12:13 00:16:37 69° 259° (WSW) 00:21:00 437.250
ESTCUBE 1 30 Jun 00:13:57 00:18:17 44° 261° (W) 00:22:40 437.505/2401.250
DX 1 30 Jun 00:27:22 00:31:39 62° 258° (WSW) 00:35:59 434.975-435.025
YUBILEINY 30 Jun 00:27:35 00:36:29 87° 83° (E) 00:45:20 435.215
NANOSAT C BR1 30 Jun 00:35:53 00:40:06 61° 101° (ESE) 00:44:18 145.865
TIGRISAT 30 Jun 00:36:14 00:40:06 26° 293° (WNW) 00:43:59 435.000
50 SAT 30 Jun 00:37:38 00:40:54 29° 263° (W) 00:44:11 437.505
QB50P1 30 Jun 00:39:41 00:43:57 71° 102° (ESE) 00:48:11 145.935-145.965
UNISAT 6 30 Jun 00:42:04 00:45:40 22° 294° (WNW) 00:49:17 437.425
Cosmos 2504 30 Jun 00:42:55 00:51:10 40° 71° (ENE) 00:59:03 435.465 / 435.565
POPSAT HIP 1 30 Jun 00:43:02 00:47:18 76° 102° (ESE) 00:51:34 437.405
SO-50 30 Jun 00:52:25 00:57:07 85° 234° (SW) 01:01:38 436.795
DUCHIFAT 1 30 Jun 00:55:44 01:00:00 86° 288° (WNW) 01:04:15 145.980
QB50P2 30 Jun 00:55:45 01:00:01 73° 285° (WNW) 01:04:17 145.880/145.840
CUBEBUG 1 30 Jun 00:56:51 01:00:19 23° 266° (W) 01:03:46 437.445
POLYITAN 1 30 Jun 00:58:23 01:02:39 71° 285° (WNW) 01:06:55 437.675
PCSat 30 Jun 01:01:14 01:03:54 14° 103° (ESE) 01:06:36 145.827
JAS-2 30 Jun 01:03:25 01:08:07 27° 93° (E) 01:12:31 435.910
VELOX 1 30 Jun 01:09:06 01:12:15 19° 267° (W) 01:15:24 145.980
Oscar 19 30 Jun 01:16:11 01:18:07 12° 89° (E) 01:20:02 437.125/150
BEESAT 30 Jun 01:17:03 01:19:44 15° 61° (ENE) 01:22:25 436.000
TISAT 1 30 Jun 01:18:49 01:22:56 67° 74° (ENE) 01:27:06 437.305
ITUPSAT 1 30 Jun 01:18:57 01:21:44 16° 61° (ENE) 01:24:31 437.325
Cosmos 2491 30 Jun 01:38:16 01:47:01 73° 280° (W) 01:55:47 435.465 / 435.565
SPROUT 30 Jun 01:41:01 01:44:02 19° 267° (W) 01:47:04 437.525
UKube-1 30 Jun 01:43:34 01:45:29 13° 269° (W) 01:47:25 .
BUGSAT 1 30 Jun 01:45:49 01:49:49 51° 287° (WNW) 01:53:50 437.445
BEESAT 3 30 Jun 01:58:06 02:01:09 22° 113° (ESE) 02:04:12 437.485
NANOSAT C BR1 30 Jun 02:13:15 02:15:20 13° 298° (WNW) 02:17:24 145.865
QB50P1 30 Jun 02:17:34 02:19:08 12° 299° (WNW) 02:20:42 145.935-145.965
POPSAT HIP 1 30 Jun 02:21:13 02:22:29 11° 299° (WNW) 02:23:44 437.405
YUBILEINY 30 Jun 02:26:15 02:32:04 20° 283° (WNW) 02:37:52 435.215
SWISSCUBE 30 Jun 02:27:01 02:31:48 76° 75° (ENE) 02:36:38 437.505
Cosmos 2504 30 Jun 02:36:17 02:44:41 49° 272° (W) 02:52:44 435.465 / 435.565
BEESAT 2 30 Jun 02:38:22 02:41:54 32° 116° (ESE) 02:45:29 435.950
PCSat 30 Jun 02:41:08 02:46:33 82° 300° (WNW) 02:52:02 145.827
JAS-2 30 Jun 02:48:12 02:53:22 38° 293° (WNW) 02:58:10 435.910
O/OREOS (USA 219) 30 Jun 02:48:52 02:53:17 58° 109° (ESE) 02:57:42 437.305
BEESAT 30 Jun 02:52:11 02:56:57 68° 258° (WSW) 03:01:45 436.000
Oscar 19 30 Jun 02:52:54 02:58:03 82° 285° (WNW) 03:03:11 437.125/150
ITUPSAT 1 30 Jun 02:54:14 02:59:01 67° 258° (WSW) 03:03:49 437.325
TISAT 1 30 Jun 02:58:18 02:59:02 10° 271° (W) 02:59:47 437.305
KKS-1 30 Jun 03:17:17 03:21:00 27° 67° (ENE) 03:24:44 437.445
MOZHAYETS 4 30 Jun 03:18:38 03:22:26 26° 67° (ENE) 03:26:16
ITAMSAT 1 30 Jun 03:19:10 03:23:38 28° 95° (E) 03:28:04 435.822/435.867
Gurwin Techsat 1B 30 Jun 03:21:55 03:27:17 82° 104° (ESE) 03:32:36 435.225
BEESAT 3 30 Jun 03:35:01 03:38:38 35° 310° (NW) 03:42:17 437.485
AO-7 30 Jun 03:39:04 03:45:22 23° 92° (E) 03:51:37 29.400- 29.500
Cosmos 2491 30 Jun 03:40:49 03:45:36 15° 303° (WNW) 03:50:25 435.465 / 435.565
STARS 30 Jun 03:45:14 03:48:53 27° 67° (ENE) 03:52:34 437.465
AIST 1 30 Jun 03:56:10 04:00:02 33° 76° (ENE) 04:03:53
SWISSCUBE 30 Jun 04:08:22 04:10:08 12° 271° (W) 04:11:55 437.505
BEESAT 2 30 Jun 04:16:25 04:19:46 25° 314° (NW) 04:23:09 435.950
PCSat 30 Jun 04:27:24 04:30:49 17° 321° (NW) 04:34:14 145.827
GONETS M04 30 Jun 04:29:45 04:36:39 25° 65° (ENE) 04:43:30
O/OREOS (USA 219) 30 Jun 04:30:13 04:33:05 16° 307° (NW) 04:35:57 437.305
Oscar 19 30 Jun 04:34:55 04:36:32 11° 303° (WNW) 04:38:10 437.125/150
AO-85 30 Jun 04:44:31 04:47:04 14° 34° (NE) 04:49:32 145.980
CUBESAT XI-V 30 Jun 04:50:19 04:54:18 28° 68° (ENE) 04:58:17 437.345
KKS-1 30 Jun 04:53:38 04:57:29 29° 264° (W) 05:01:22 437.445
MOZHAYETS 4 30 Jun 04:55:15 04:59:27 34° 264° (W) 05:03:40
ITAMSAT 1 30 Jun 04:58:21 05:03:10 38° 292° (WNW) 05:07:57 435.822/435.867
Gurwin Techsat 1B 30 Jun 05:03:39 05:06:32 15° 301° (WNW) 05:09:25 435.225
AIST 2 30 Jun 05:10:51 05:14:57 75° 123° (ESE) 05:19:06 435.215
Cosmos 2499 30 Jun 05:14:47 05:22:26 32° 67° (ENE) 05:29:39 435.465 / 435.565
STARS 30 Jun 05:21:24 05:25:10 28° 264° (W) 05:28:58 437.465
AO-7 30 Jun 05:30:32 05:38:56 79° 291° (WNW) 05:47:17 29.400- 29.500
AIST 1 30 Jun 05:34:17 05:37:24 20° 273° (W) 05:40:31
HORYU 2 30 Jun 06:08:22 06:12:54 82° 103° (ESE) 06:17:24 437.375
CUTE-I 30 Jun 06:12:28 06:15:13 14° 89° (E) 06:17:59 437.470
AO-85 30 Jun 06:23:49 06:28:24 82° 59° (ENE) 06:32:32 145.980
GONETS M04 30 Jun 06:25:39 06:34:22 75° 265° (W) 06:43:04
CUBESAT XI-V 30 Jun 06:27:24 06:31:35 32° 264° (W) 06:35:47 437.345
LilacSat-2 30 Jun 06:29:02 06:31:23 15° 92° (E) 06:33:44 437.200
NOAA 15 30 Jun 06:33:48 06:38:24 30° 96° (E) 06:42:57 137.62
STRAND 1 30 Jun 06:50:33 06:55:14 37° 68° (ENE) 06:59:57 437.568
AIST 2 30 Jun 06:51:27 06:53:57 15° 321° (NW) 06:56:26 435.215
Cosmos 2499 30 Jun 07:07:31 07:16:06 60° 269° (W) 07:24:08 435.465 / 435.565
PHONESAT 2.4 30 Jun 07:08:05 07:10:51 31° 162° (SSE) 07:13:38 2401.200-2431.200
BRITE-PL 30 Jun 07:09:01 07:13:10 65° 102° (ESE) 07:17:20 437.365/2234.400
CUSAT 1 30 Jun 07:12:39 07:19:53 46° 94° (E) 07:25:57 437.405
Cubesat XI-IV 30 Jun 07:16:41 07:21:58 54° 100° (E) 07:27:14 437.490
AO-7 30 Jun 07:24:52 07:30:27 20° 312° (NW) 07:36:01 29.400- 29.500
NOAA 18 30 Jun 07:24:56 07:30:29 68° 102° (ESE) 07:36:00 137.9125
GOMX 1 30 Jun 07:33:42 07:37:50 53° 100° (E) 07:42:09 467.674
HORYU 2 30 Jun 07:47:17 07:48:47 12° 300° (WNW) 07:50:17 437.375
DANDE 30 Jun 07:50:10 07:58:06 48° 92° (E) 08:05:19 436.750
CUTE-I 30 Jun 07:50:27 07:55:51 76° 286° (WNW) 08:01:12 437.470
CANX-2 30 Jun 07:57:26 07:59:11 12° 89° (E) 08:00:56 2200.000
LilacSat-2 30 Jun 08:02:13 08:05:51 39° 288° (WNW) 08:09:29 437.200
NOAA 15 30 Jun 08:13:27 08:18:11 35° 293° (WNW) 08:22:54 137.62
CUTE 1.7 + AOD 2 30 Jun 08:16:08 08:19:01 17° 92° (E) 08:21:52 437.475
SEEDS 30 Jun 08:17:42 08:19:35 13° 90° (E) 08:21:26 437.485
DOVE 4 30 Jun 08:24:57 08:29:20 88° 108° (ESE) 08:33:56 437.250
GONETS M04 30 Jun 08:25:32 08:29:34 14° 286° (WNW) 08:33:37
ISS 30 Jun 08:25:47 08:28:52 41° 140° (SE) 08:31:58 145.825
STRAND 1 30 Jun 08:30:03 08:34:27 28° 265° (W) 08:38:53 437.568
PRISM 30 Jun 08:42:20 08:46:28 73° 75° (ENE) 08:50:36 437.425
PHONESAT 2.4 30 Jun 08:44:12 08:47:14 57° 178° (S) 08:50:15 2401.200-2431.200
BRITE-PL 30 Jun 08:49:48 08:51:09 11° 298° (WNW) 08:52:30 437.365/2234.400
AAUSAT CUBESAT 2 30 Jun 08:51:01 08:53:41 17° 92° (E) 08:56:22 437.432
HO-68 30 Jun 08:51:27 08:58:24 48° 100° (E) 09:05:16 435.675
CUBEBUG 2 30 Jun 08:53:39 08:56:46 18° 92° (E) 08:59:55 437.445
CUSAT 1 30 Jun 08:55:10 09:01:59 36° 287° (WNW) 09:07:45 437.405
Cubesat XI-IV 30 Jun 08:57:37 09:01:39 22° 298° (WNW) 09:05:39 437.490
Cosmos 2499 30 Jun 09:05:46 09:07:09 10° 290° (WNW) 09:08:32 435.465 / 435.565
NOAA 18 30 Jun 09:06:49 09:10:35 19° 300° (WNW) 09:14:20 137.9125
CINEMA 3 30 Jun 09:07:26 09:12:02 75° 102° (ESE) 09:16:49 145.822/145.860
ANTELSAT 30 Jun 09:11:10 09:12:08 11° 59° (ENE) 09:13:04 437.575/2403.000
ZACube-1 30 Jun 09:13:06 09:14:59 12° 89° (E) 09:16:53 437.345
GOMX 1 30 Jun 09:13:15 09:15:34 15° 296° (WNW) 09:17:56 467.674
Oscar 11 30 Jun 09:19:05 09:21:24 14° 90° (E) 09:23:44 145.826/435.025
COMPASS 1 30 Jun 09:25:51 09:29:57 51° 99° (E) 09:34:00 437.405
FUNcube-1 30 Jun 09:28:42 09:31:43 17° 92° (E) 09:34:44 145.935
CANX-2 30 Jun 09:31:12 09:35:27 60° 286° (WNW) 09:39:38 2200.000
DANDE 30 Jun 09:33:11 09:40:59 41° 287° (WNW) 09:48:04 436.750
CUTE-I 30 Jun 09:33:17 09:34:59 11° 304° (NW) 09:36:41 437.470
UWE-3 30 Jun 09:36:25 09:40:36 33° 96° (E) 09:44:47 435.000/436.395/437.385
PCSat 30 Jun 09:45:57 09:49:37 18° 40° (NE) 09:53:16 145.827
CUTE 1.7 + AOD 2 30 Jun 09:50:59 09:55:03 42° 288° (WNW) 09:59:03 437.475
SEEDS 30 Jun 09:51:28 09:55:38 57° 287° (WNW) 09:59:46 437.485
Cosmos 2491 30 Jun 09:54:12 09:57:18 12° 53° (NE) 10:00:24 435.465 / 435.565
AUBIESAT-1 30 Jun 09:54:41 09:58:10 28° 102° (ESE) 10:01:50 437.475
TIGRISAT 30 Jun 09:58:55 10:02:42 31° 68° (ENE) 10:06:35 435.000
ISS 30 Jun 10:02:24 10:05:22 31° 337° (NNW) 10:08:22 145.825
UNISAT 6 30 Jun 10:04:28 10:08:27 37° 70° (ENE) 10:12:31 437.425
HUMSAT D 30 Jun 10:10:48 10:11:55 11° 89° (E) 10:13:00 437.325/437.525
BEESAT 3 30 Jun 10:14:11 10:17:10 20° 44° (NE) 10:20:08 437.485
PHONESAT 2.4 30 Jun 10:20:46 10:23:38 36° 195° (SSW) 10:26:29 2401.200-2431.200
DELFI C3 30 Jun 10:21:44 10:25:14 29° 96° (E) 10:28:43 145.870
AAUSAT CUBESAT 2 30 Jun 10:25:26 10:29:23 42° 288° (WNW) 10:33:17 437.432
CUBEBUG 2 30 Jun 10:29:09 10:33:37 50° 287° (WNW) 10:38:11 437.445
RS-15 30 Jun 10:35:05 10:43:59 28° 101° (E) 10:53:11 29.354- 29.394
M-CUBED/EXP-1 PRIME 30 Jun 10:35:17 10:39:13 83° 291° (WNW) 10:43:29 437.505
HO-68 30 Jun 10:39:30 10:45:54 36° 298° (WNW) 10:52:17 435.675
ANTELSAT 30 Jun 10:43:48 10:48:07 83° 260° (W) 10:52:34 437.575/2403.000
CINEMA 3 30 Jun 10:46:33 10:48:38 13° 298° (WNW) 10:50:45 145.822/145.860
ZACube-1 30 Jun 10:47:10 10:51:42 69° 286° (WNW) 10:56:16 437.345
Oscar 11 30 Jun 10:53:36 10:57:52 54° 287° (WNW) 11:02:06 145.826/435.025
BEESAT 2 30 Jun 10:55:30 10:58:59 27° 47° (NE) 11:02:25 435.950
COMPASS 1 30 Jun 11:02:41 11:05:06 15° 296° (WNW) 11:07:29 437.405
FUNcube-1 30 Jun 11:03:49 11:08:12 49° 288° (WNW) 11:12:36 145.935
BUGSAT 1 30 Jun 11:04:03 11:05:07 11° 61° (ENE) 11:06:10 437.445
UWE-3 30 Jun 11:13:04 11:16:55 27° 292° (WNW) 11:20:47 435.000/436.395/437.385
JAS-2 30 Jun 11:16:26 11:21:24 20° 59° (ENE) 11:26:02 435.910
O/OREOS (USA 219) 30 Jun 11:19:57 11:22:39 15° 52° (NE) 11:25:21 437.305
PCSat 30 Jun 11:28:19 11:33:47 89° 237° (WSW) 11:39:12 145.827
NANOSAT C BR1 30 Jun 11:28:33 11:32:33 48° 73° (ENE) 11:36:37 145.865
AUBIESAT-1 30 Jun 11:29:14 11:32:34 26° 296° (WNW) 11:36:05 437.475
QB50P1 30 Jun 11:32:36 11:36:42 56° 73° (ENE) 11:40:49 145.935-145.965
TIGRISAT 30 Jun 11:35:53 11:39:25 25° 266° (W) 11:43:02 435.000
POPSAT HIP 1 30 Jun 11:35:59 11:40:06 60° 73° (ENE) 11:44:15 437.405
YUBILEINY 30 Jun 11:36:09 11:41:58 20° 78° (ENE) 11:47:48 435.215
ISS 30 Jun 11:40:18 11:42:33 17° 358° (N) 11:44:47 145.825
UNISAT 6 30 Jun 11:42:04 11:45:18 20° 267° (W) 11:48:36 437.425
HUMSAT D 30 Jun 11:43:40 11:47:59 69° 285° (WNW) 11:52:16 437.325/437.525
Cosmos 2491 30 Jun 11:47:42 11:56:20 60° 78° (ENE) 12:04:54 435.465 / 435.565
DUCHIFAT 1 30 Jun 11:48:01 11:52:10 75° 74° (ENE) 11:56:21 145.980
QB50P2 30 Jun 11:48:44 11:52:56 89° 256° (WSW) 11:57:11 145.880/145.840
BEESAT 3 30 Jun 11:51:16 11:55:04 45° 242° (WSW) 11:58:50 437.485
POLYITAN 1 30 Jun 11:51:22 11:55:34 87° 258° (WSW) 11:59:48 437.675
AIST 2 30 Jun 11:55:31 11:56:16 10° 34° (NE) 11:57:01 435.215
DELFI C3 30 Jun 11:56:50 11:59:56 22° 293° (WNW) 12:03:02 145.870
PHONESAT 2.4 30 Jun 11:58:49 11:59:43 11° 211° (SSW) 12:00:37 2401.200-2431.200
AISAT 30 Jun 12:02:18 12:05:36 20° 94° (E) 12:08:53 437.250
ESTCUBE 1 30 Jun 12:05:38 12:09:46 35° 97° (E) 12:13:51 437.505/2401.250
50 SAT 30 Jun 12:06:00 12:08:50 21° 94° (E) 12:11:39 437.505
DX 1 30 Jun 12:15:25 12:18:41 20° 94° (E) 12:21:55 434.975-435.025
Oscar 19 30 Jun 12:32:56 12:36:43 21° 63° (ENE) 12:40:29 437.125/150
BEESAT 2 30 Jun 12:33:17 12:36:48 30° 245° (WSW) 12:40:17 435.950
BUGSAT 1 30 Jun 12:35:57 12:39:56 68° 258° (WSW) 12:43:57 437.445
CUBEBUG 1 30 Jun 12:43:27 12:47:44 60° 101° (ESE) 12:52:00 437.445
RS-15 30 Jun 12:43:28 12:54:56 84° 304° (NW) 13:07:07 29.354- 29.394
VELOX 1 30 Jun 12:56:44 13:01:08 75° 102° (ESE) 13:05:32 145.980
O/OREOS (USA 219) 30 Jun 12:58:04 13:02:30 63° 251° (WSW) 13:06:56 437.305
JAS-2 30 Jun 12:58:05 13:05:43 88° 252° (WSW) 13:12:38 435.910
Gurwin Techsat 1B 30 Jun 13:05:57 13:09:40 20° 61° (ENE) 13:13:23 435.225
NANOSAT C BR1 30 Jun 13:06:12 13:08:34 15° 269° (W) 13:10:57 145.865
QB50P1 30 Jun 13:10:59 13:12:50 13° 270° (W) 13:14:41 145.935-145.965
PCSat 30 Jun 13:14:19 13:16:20 12° 258° (WSW) 13:18:20 145.827
POPSAT HIP 1 30 Jun 13:14:46 13:16:17 12° 270° (W) 13:17:48 437.405
ISS 30 Jun 13:17:02 13:19:48 24° 18° (NNE) 13:22:33 145.825
Cosmos 2504 30 Jun 13:22:26 13:29:19 31° 82° (E) 13:36:33 435.465 / 435.565
SPROUT 30 Jun 13:24:33 13:28:50 68° 102° (ESE) 13:33:06 437.525
UKube-1 30 Jun 13:26:57 13:31:17 83° 286° (WNW) 13:35:35 .
YUBILEINY 30 Jun 13:28:51 13:37:35 85° 279° (W) 13:46:25 435.215
AIST 2 30 Jun 13:31:29 13:35:37 61° 53° (NE) 13:39:44 435.215
AISAT 30 Jun 13:38:08 13:42:12 37° 290° (WNW) 13:46:15 437.250
50 SAT 30 Jun 13:39:23 13:42:30 26° 291° (WNW) 13:45:34 437.505
ESTCUBE 1 30 Jun 13:42:48 13:46:23 24° 294° (WNW) 13:49:58 437.505/2401.250
Cosmos 2491 30 Jun 13:45:22 13:52:35 30° 277° (W) 13:59:48 435.465 / 435.565
DX 1 30 Jun 13:50:59 13:54:58 37° 290° (WNW) 13:58:57 434.975-435.025
Oscar 19 30 Jun 14:10:38 14:15:39 52° 260° (W) 14:20:41 437.125/150
CUBEBUG 1 30 Jun 14:21:18 14:23:32 14° 298° (WNW) 14:25:46 437.445
SWISSCUBE 30 Jun 14:27:30 14:30:47 18° 92° (E) 14:34:02 437.505
VELOX 1 30 Jun 14:35:23 14:37:00 12° 300° (WNW) 14:38:37 145.980
TISAT 1 30 Jun 14:37:20 14:41:33 75° 284° (WNW) 14:45:45 437.305
ITAMSAT 1 30 Jun 14:37:38 14:42:35 46° 69° (ENE) 14:47:35 435.822/435.867
AO-7 30 Jun 14:38:42 14:46:02 36° 58° (ENE) 14:53:26 29.400- 29.500
Gurwin Techsat 1B 30 Jun 14:43:54 14:49:08 60° 259° (WSW) 14:54:25 435.225
JAS-2 30 Jun 14:46:51 14:51:21 17° 271° (W) 14:55:40 435.910
BEESAT 30 Jun 14:51:53 14:56:02 28° 96° (E) 15:00:08 436.000
ISS 30 Jun 14:53:15 14:56:30 72° 216° (SW) 14:59:45 145.825
ITUPSAT 1 30 Jun 14:54:18 14:58:30 29° 96° (E) 15:02:40 437.325
RS-15 30 Jun 14:59:09 15:09:29 34° 333° (NNW) 15:20:17 29.354- 29.394
SPROUT 30 Jun 15:02:28 15:04:14 12° 298° (WNW) 15:05:59 437.525
SO-50 30 Jun 15:07:28 15:11:33 27° 113° (ESE) 15:15:38 436.795
AIST 2 30 Jun 15:11:31 15:13:36 14° 251° (WSW) 15:15:41 435.215
Cosmos 2504 30 Jun 15:14:02 15:22:05 60° 283° (WNW) 15:30:45 435.465 / 435.565
YUBILEINY 30 Jun 15:30:06 15:35:50 19° 300° (WNW) 15:41:37 435.215
SWISSCUBE 30 Jun 16:04:12 16:08:51 50° 289° (WNW) 16:13:27 437.505
ITAMSAT 1 30 Jun 16:18:11 16:22:16 23° 267° (W) 16:26:22 435.822/435.867
AIST 1 30 Jun 16:27:01 16:30:05 19° 87° (E) 16:33:09
BEESAT 30 Jun 16:29:33 16:33:48 32° 292° (WNW) 16:38:01 436.000
AO-7 30 Jun 16:30:19 16:38:28 57° 257° (WSW) 16:46:41 29.400- 29.500
ITUPSAT 1 30 Jun 16:32:04 16:36:18 31° 293° (WNW) 16:40:30 437.325
KKS-1 30 Jun 16:43:01 16:47:20 48° 100° (E) 16:51:38 437.445
SO-50 30 Jun 16:47:12 16:51:51 42° 311° (NW) 16:56:30 436.795
MOZHAYETS 4 30 Jun 16:48:56 16:53:29 53° 100° (E) 16:58:00
Cubesat XI-IV 30 Jun 17:02:44 17:05:26 14° 58° (ENE) 17:08:10 437.490
HORYU 2 30 Jun 17:06:49 17:11:14 82° 76° (ENE) 17:15:43 437.375
STARS 30 Jun 17:09:13 17:13:28 46° 99° (E) 17:17:43 437.465
NOAA 18 30 Jun 17:13:35 17:17:31 20° 60° (ENE) 17:21:27 137.9125
Cosmos 2504 30 Jun 17:14:26 17:17:43 12° 307° (NW) 17:21:05 435.465 / 435.565
RS-15 30 Jun 17:17:30 17:27:05 26° 8° (N) 17:36:51 29.354- 29.394
GONETS M04 30 Jun 17:32:56 17:39:45 27° 81° (E) 17:46:34
CUTE-I 30 Jun 17:34:21 17:38:43 26° 64° (ENE) 17:43:07 437.470
CUSAT 1 30 Jun 17:49:47 17:51:42 14° 64° (ENE) 17:53:26 437.405
Cosmos 2499 30 Jun 17:52:57 17:59:16 24° 79° (E) 18:05:48 435.465 / 435.565
NOAA 15 30 Jun 17:54:22 17:59:29 53° 71° (ENE) 18:04:37 137.62
AIST 1 30 Jun 18:03:27 18:07:25 35° 284° (WNW) 18:11:23
BRITE-PL 30 Jun 18:20:02 18:25:03 84° 75° (ENE) 18:29:39 437.365/2234.400
KKS-1 30 Jun 18:20:33 18:23:32 18° 296° (WNW) 18:26:32 437.445
CUBESAT XI-V 30 Jun 18:22:31 18:27:06 60° 101° (E) 18:31:38 437.345
MOZHAYETS 4 30 Jun 18:27:11 18:30:14 18° 297° (WNW) 18:33:16
DANDE 30 Jun 18:32:17 18:36:00 22° 64° (ENE) 18:39:01 436.750
SO-50 30 Jun 18:33:07 18:33:38 10° 332° (NNW) 18:34:07 436.795
Cubesat XI-IV 30 Jun 18:39:24 18:44:45 87° 256° (WSW) 18:50:10 437.490
GOMX 1 30 Jun 18:42:32 18:47:02 63° 74° (ENE) 18:51:18 467.674
LilacSat-2 30 Jun 18:44:23 18:48:09 74° 259° (W) 18:51:58 437.200
STARS 30 Jun 18:46:29 18:49:29 18° 296° (WNW) 18:52:30 437.465
CANX-2 30 Jun 18:52:11 18:53:12 11° 61° (ENE) 18:54:14 2200.000
NOAA 18 30 Jun 18:52:17 18:57:40 61° 258° (WSW) 19:03:08 137.9125
STRAND 1 30 Jun 19:02:42 19:04:05 11° 88° (E) 19:05:30 437.568
CUTE 1.7 + AOD 2 30 Jun 19:10:11 19:12:36 15° 63° (ENE) 19:15:01 437.475
SEEDS 30 Jun 19:11:25 19:12:30 11° 61° (ENE) 19:13:36 437.485
CUTE-I 30 Jun 19:13:27 19:18:31 43° 261° (W) 19:23:38 437.470
HO-68 30 Jun 19:20:55 19:27:25 39° 63° (ENE) 19:33:57 435.675
GONETS M04 30 Jun 19:27:10 19:35:49 67° 281° (W) 19:44:30
CUSAT 1 30 Jun 19:31:14 19:33:52 21° 272° (W) 19:36:10 437.405
DOVE 4 30 Jun 19:31:23 19:35:41 86° 257° (WSW) 19:39:52 437.250
RS-15 30 Jun 19:32:02 19:43:48 47° 40° (NE) 19:55:31 29.354- 29.394
NOAA 15 30 Jun 19:35:42 19:39:34 20° 267° (W) 19:43:26 137.62
AAUSAT CUBESAT 2 30 Jun 19:42:50 19:44:54 13° 63° (ENE) 19:46:56 437.432
Cosmos 2499 30 Jun 19:43:01 19:51:24 76° 280° (W) 20:00:18 435.465 / 435.565
M-CUBED/EXP-1 PRIME 30 Jun 19:52:26 19:52:32 10° 57° (ENE) 19:52:39 437.505
CUBEBUG 2 30 Jun 19:53:29 19:55:52 15° 63° (ENE) 19:58:17 437.445
CUBESAT XI-V 30 Jun 20:01:18 20:03:59 16° 298° (WNW) 20:06:40 437.345
BRITE-PL 30 Jun 20:03:15 20:03:58 10° 271° (W) 20:04:41 437.365/2234.400
CINEMA 3 30 Jun 20:10:04 20:14:11 71° 75° (ENE) 20:18:22 145.822/145.860
ZACube-1 30 Jun 20:11:11 20:12:04 11° 60° (ENE) 20:12:56 437.345
DANDE 30 Jun 20:15:01 20:18:52 26° 274° (W) 20:21:56 436.750
Oscar 11 30 Jun 20:15:15 20:17:18 13° 62° (ENE) 20:19:20 145.826/435.025
COMPASS 1 30 Jun 20:17:07 20:21:00 37° 71° (ENE) 20:24:55 437.405
GOMX 1 30 Jun 20:23:46 20:25:29 12° 269° (W) 20:27:11 467.674
CANX-2 30 Jun 20:24:07 20:28:25 80° 260° (W) 20:32:44 2200.000
Cubesat XI-IV 30 Jun 20:24:19 20:25:35 11° 273° (W) 20:26:52 437.490
FUNcube-1 30 Jun 20:25:51 20:28:09 14° 63° (ENE) 20:30:30 145.935
UWE-3 30 Jun 20:34:29 20:38:03 27° 68° (ENE) 20:41:42 435.000/436.395/437.385
AO-85 30 Jun 20:38:15 20:42:45 27° 112° (ESE) 20:47:10 145.980
STRAND 1 30 Jun 20:38:45 20:43:57 88° 286° (WNW) 20:49:06 437.568
AUBIESAT-1 30 Jun 20:42:13 20:45:12 32° 66° (ENE) 20:48:15 437.475
SEEDS 30 Jun 20:43:19 20:47:33 78° 256° (WSW) 20:51:51 437.485
CUTE 1.7 + AOD 2 30 Jun 20:43:47 20:47:59 55° 260° (W) 20:52:14 437.475
HO-68 30 Jun 21:08:18 21:15:02 43° 261° (W) 21:21:49 435.675
DELFI C3 30 Jun 21:08:45 21:11:43 20° 67° (ENE) 21:14:43 145.870
AAUSAT CUBESAT 2 30 Jun 21:15:44 21:19:52 59° 259° (W) 21:24:03 437.432
M-CUBED/EXP-1 PRIME 30 Jun 21:23:31 21:26:41 49° 255° (WSW) 21:29:54 437.505
CUBEBUG 2 30 Jun 21:27:57 21:32:01 52° 260° (W) 21:36:14 437.445
GONETS M04 30 Jun 21:30:27 21:34:34 14° 304° (NW) 21:38:41
Cosmos 2499 30 Jun 21:41:02 21:46:14 17° 302° (WNW) 21:51:35 435.465 / 435.565
ZACube-1 30 Jun 21:43:26 21:47:39 81° 258° (WSW) 21:52:00 437.345
RS-15 30 Jun 21:44:52 21:56:59 66° 245° (WSW) 22:08:57 29.354- 29.394
Oscar 11 30 Jun 21:48:34 21:52:52 65° 259° (WSW) 21:57:14 145.826/435.025
COMPASS 1 30 Jun 21:53:40 21:56:42 19° 267° (W) 21:59:44 437.405
PRISM 30 Jun 21:58:18 22:02:23 76° 287° (WNW) 22:06:26 437.425
FUNcube-1 30 Jun 21:59:46 22:03:54 56° 260° (W) 22:08:10 145.935
UWE-3 30 Jun 22:10:54 22:14:27 26° 265° (W) 22:18:06 435.000/436.395/437.385
AO-85 30 Jun 22:17:48 22:23:03 49° 309° (NW) 22:28:06 145.980
AUBIESAT-1 30 Jun 22:18:15 22:19:53 13° 262° (W) 22:21:32 437.475
STRAND 1 30 Jun 22:20:13 22:22:20 13° 302° (WNW) 22:24:27 437.568
